Content
SEND FEEDBACK

Daily
Averages
Monthly
Summary
United States of America

BARRINGTON, ILLINOIS


Home > North America > United States > Illinois
Elevation: 810 feet     Latitude: 42 10N     Longitude: 088 09W

WEATHER
 
SELECT A DAY
Number of Records: 198,991;   Date Range: 1/1/95 - 9/30/14
 
SHARE

PRINT THIS DATA

[ ← Previous Day ]
WEATHER ALMANAC - JANUARY 17, 2014
[ Next Day → ]
[ °C ]   °F
Weather ElementAverageHighLow
Temperature15.7 °F17.1 °F (1:51 am)12 °F (9:51 am)
Dewpoint5.9 °F10 °F (5:51 pm)1 °F (5:51 am)
Humidity65.7 %77 % (5:51 pm)56 % (5:51 am)
Barometer29.88 in29.99 in (9:51 pm)29.73 in (1:51 am)
Wind Speed12 mph15 mph (3:51 am)
Weather ElementAverage
Visibility7.8 mi
Wind DirectionW (267.6 °)

Weather ElementTotal
Precipitation0.01 in
Heating Degree Days50.5 (Base 65)
Averaged from 29 records on January 17, 2014
WEATHER CONDITIONS BREAKOUT
WIND DIRECTION BREAKOUT
WEATHER BY HOUR - JANUARY 17, 2014
[ °C ]   °F
Local TimeTemperatureDewpointHumidityBarometerVisibilityWind DirectionWind SpeedGust SpeedPrecipitationEventsConditions
1:51 AM17.1 °F7.0 °F65 %29.73 in9.0 miWest (280°)10.4 mph0.00 inSnowLight Snow
2:51 AM16.0 °F6.1 °F65 %29.75 in9.0 miWNW (290°)11.5 mph0.00 inSnowLight Snow
3:51 AM15.8 °F3.2 °F58 %29.74 in9.0 miWNW (290°)15.0 mphSnowLight Snow
4:51 AM14.0 °F3.0 °F62 %29.79 in10.0 miWNW (290°)11.5 mph0.00 inOvercast
5:51 AM14.0 °F1.0 °F56 %29.80 in10.0 miWest (280°)11.5 mphOvercast
7:51 AM12.9 °F1.0 °F59 %29.84 in10.0 miWNW (300°)12.7 mphOvercast
8:51 AM12.9 °F1.9 °F62 %29.87 in10.0 miWest (280°)12.7 mphOvercast
9:51 AM12.0 °F1.9 °F64 %29.89 in10.0 miWest (270°)11.5 mphMostly Cloudy
10:52 AM12.9 °F1.9 °F62 %29.87 in10.0 miWest (260°)13.8 mphOvercast
11:51 AM14.0 °F1.9 °F59 %29.88 in10.0 miWest (260°)12.7 mphOvercast
12:51 PM15.1 °F3.0 °F59 %29.87 in10.0 miSW (230°)10.4 mphMostly Cloudy
1:35 PM16.0 °F3.9 °F59 %29.84 in10.0 miWest (260°)12.7 mphMostly Cloudy
1:51 PM17.1 °F3.9 °F56 %29.88 in10.0 miWest (270°)12.7 mphMostly Cloudy
2:37 PM17.1 °F5.0 °F59 %29.86 in10.0 miWest (260°)13.8 mphOvercast
2:51 PM17.1 °F6.1 °F62 %29.90 in9.0 miWest (270°)13.8 mph0.00 inSnowLight Snow
3:24 PM17.1 °F7.0 °F65 %29.88 in6.0 miWest (260°)15.0 mph0.00 inSnowLight Snow
3:51 PM17.1 °F7.0 °F65 %29.92 in5.0 miWest (260°)10.4 mph0.00 inSnowLight Snow
3:54 PM16.0 °F7.0 °F68 %29.89 in4.0 miWest (260°)12.7 mph0.00 inSnowLight Snow
4:51 PM16.0 °F9.0 °F74 %29.94 in3.0 miWest (270°)10.4 mph0.00 inSnowLight Snow
5:51 PM16.0 °F10.0 °F77 %29.95 in3.0 miWest (260°)8.1 mph0.00 inSnowLight Snow
6:51 PM17.1 °F10.0 °F74 %29.96 in4.0 miWSW (250°)11.5 mph0.01 inSnowLight Snow
7:05 PM17.1 °F10.0 °F74 %29.93 in5.0 miWest (260°)11.5 mph0.00 inSnowLight Snow
7:51 PM17.1 °F9.0 °F71 %29.96 in6.0 miWest (270°)13.8 mph0.00 inSnowLight Snow
8:04 PM17.1 °F10.0 °F74 %29.93 in4.0 miWest (270°)11.5 mph0.00 inSnowLight Snow
8:39 PM17.1 °F9.0 °F71 %29.93 in5.0 miWest (260°)12.7 mph0.00 inSnowLight Snow
8:51 PM17.1 °F9.0 °F71 %29.96 in7.0 miWest (260°)11.5 mph0.00 inSnowLight Snow
9:51 PM16.0 °F8.1 °F71 %29.99 in10.0 miWest (260°)11.5 mph0.00 inOvercast
10:51 PM15.1 °F7.0 °F70 %29.97 in9.0 miWest (260°)9.2 mph0.00 inSnowLight Snow
11:51 PM14.0 °F6.8 °F73 %29.92 in9.0 miWest (270°)10.4 mphSnowLight Snow
Hourly data recorded from KORD, located miles away from Barrington, Illinois







STORIES FROM OUR PARTNERS